This is the latest recevied weather packets stored in our database for station/object DJ4RO-13. If no packets are shown the sender has not sent any weather packets the latest 10 day(s).
| Time | Temp. | Humidity | Pressure | Rain* | Wind** | Luminosity | Snow |
|---|---|---|---|---|---|---|---|
| 1777278909 | 13.89° C | 43% | 1029.6 hPa | 0 mm | - | 491 W/m² | - |
| 1777278589 | 13.89° C | 43% | 1029.4 hPa | 0 mm | - | 482 W/m² | - |
| 1777278269 | 13.89° C | 43% | 1029.4 hPa | 0 mm | - | 473 W/m² | - |
| 1777277949 | 13.33° C | 46% | 1029.5 hPa | 0 mm | - | 465 W/m² | - |
| 1777277630 | 13.33° C | 45% | 1029.5 hPa | 0 mm | - | 457 W/m² | - |
| 1777277309 | 13.33° C | 43% | 1029.4 hPa | 0 mm | - | 448 W/m² | - |
| 1777276989 | 13.33° C | 43% | 1029.7 hPa | 0 mm | - | 438 W/m² | - |
| 1777276669 | 13.33° C | 43% | 1029.6 hPa | 0 mm | - | 429 W/m² | - |
| 1777276349 | 12.78° C | 44% | 1029.6 hPa | 0 mm | - | 421 W/m² | - |
| 1777276029 | 12.78° C | 44% | 1029.6 hPa | 0 mm | - | 375 W/m² | - |
| 1777275710 | 12.22° C | 43% | 1029.5 hPa | 0 mm | - | 380 W/m² | - |
| 1777275392 | 12.22° C | 44% | 1029.6 hPa | 0 mm | - | 386 W/m² | - |
| 1777275069 | 12.78° C | 44% | 1029.9 hPa | 0 mm | - | 376 W/m² | - |
| 1777274749 | 12.22° C | 43% | 1029.6 hPa | 0 mm | - | 365 W/m² | - |
| 1777274429 | 12.22° C | 43% | 1029.7 hPa | 0 mm | - | 323 W/m² | - |
| 1777274109 | 12.22° C | 45% | 1029.6 hPa | 0 mm | - | 343 W/m² | - |
| 1777273789 | 11.67° C | 45% | 1029.8 hPa | 0 mm | - | 330 W/m² | - |
| 1777273469 | 11.11° C | 47% | 1029.6 hPa | 0 mm | - | 317 W/m² | - |
| 1777273149 | 11.11° C | 46% | 1029.6 hPa | 0 mm | - | 307 W/m² | - |
| 1777272829 | 11.11° C | 45% | 1029.6 hPa | 0 mm | - | 295 W/m² | - |
| 1777272513 | 11.11° C | 47% | 1029.3 hPa | 0 mm | - | 282 W/m² | - |
| 1777272212 | 10.56° C | 47% | 1029.7 hPa | 0 mm | - | 271 W/m² | - |
| 1777271852 | 10° C | 49% | 1029.6 hPa | 0 mm | - | 257 W/m² | - |
| 1777271549 | 10° C | 51% | 1029.6 hPa | 0 mm | - | 244 W/m² | - |
| 1777271229 | 9.44° C | 50% | 1029.4 hPa | 0 mm | - | 232 W/m² | - |
* Rain latest hour (hover to see other rain measurements)
** Current wind speed in m/s (hover to see current wind gust speed)